TimeCST,TemperatureF,Dew PointF,Humidity,Sea Level PressureIn,VisibilityMPH,Wind Direction,Wind SpeedMPH,Gust SpeedMPH,PrecipitationIn,Events,Conditions,WindDirDegrees,DateUTC
12:52 AM,27.0,25.0,92,30.13,10.0,Calm,Calm,-,N/A,,Clear,0,2012-11-07 06:52:00
1:52 AM,26.1,23.0,88,30.13,10.0,Calm,Calm,-,N/A,,Clear,0,2012-11-07 07:52:00
2:52 AM,23.0,21.9,96,30.12,10.0,Calm,Calm,-,N/A,,Clear,0,2012-11-07 08:52:00
3:52 AM,27.0,25.0,92,30.09,10.0,East,4.6,-,N/A,,Overcast,100,2012-11-07 09:52:00
4:52 AM,28.9,27.0,92,30.08,10.0,East,4.6,-,N/A,,Overcast,100,2012-11-07 10:52:00
5:52 AM,30.0,27.0,88,30.07,10.0,SSE,3.5,-,N/A,,Overcast,160,2012-11-07 11:52:00
6:52 AM,28.9,27.0,92,30.06,10.0,ESE,5.8,-,N/A,,Partly Cloudy,120,2012-11-07 12:52:00
7:52 AM,30.9,28.0,89,30.05,10.0,ESE,6.9,-,N/A,,Scattered Clouds,120,2012-11-07 13:52:00
8:52 AM,33.1,28.9,85,30.03,10.0,SE,9.2,-,N/A,,Partly Cloudy,140,2012-11-07 14:52:00
9:52 AM,39.0,30.9,73,30.00,10.0,SSE,10.4,-,N/A,,Clear,150,2012-11-07 15:52:00
10:52 AM,44.1,30.9,60,29.97,10.0,SSE,17.3,-,N/A,,Clear,160,2012-11-07 16:52:00
11:52 AM,48.9,30.0,48,29.93,10.0,SSE,17.3,-,N/A,,Clear,160,2012-11-07 17:52:00
12:52 PM,51.1,28.9,43,29.87,10.0,SSE,15.0,24.2,N/A,,Clear,160,2012-11-07 18:52:00
1:52 PM,53.1,28.9,40,29.83,10.0,South,19.6,-,N/A,,Scattered Clouds,170,2012-11-07 19:52:00
2:52 PM,55.0,28.9,37,29.80,10.0,South,16.1,-,N/A,,Clear,170,2012-11-07 20:52:00
3:52 PM,55.9,28.9,36,29.77,10.0,South,16.1,23.0,N/A,,Clear,170,2012-11-07 21:52:00
4:52 PM,55.0,28.0,35,29.75,10.0,SSE,12.7,-,N/A,,Clear,150,2012-11-07 22:52:00
5:52 PM,54.0,28.9,38,29.75,10.0,Variable,5.8,-,N/A,,Clear,0,2012-11-07 23:52:00
6:52 PM,53.1,30.0,41,29.76,10.0,SSE,9.2,-,N/A,,Clear,160,2012-11-08 00:52:00
7:52 PM,53.1,28.9,40,29.74,10.0,South,13.8,-,N/A,,Clear,180,2012-11-08 01:52:00
8:52 PM,46.9,30.9,54,29.75,10.0,SE,10.4,-,N/A,,Clear,140,2012-11-08 02:52:00
9:52 PM,42.1,30.0,62,29.75,10.0,Calm,Calm,-,N/A,,Clear,0,2012-11-08 03:52:00
10:52 PM,39.9,30.0,68,29.75,10.0,Calm,Calm,-,N/A,,Clear,0,2012-11-08 04:52:00
11:52 PM,43.0,30.0,60,29.78,10.0,WSW,5.8,-,N/A,,Clear,250,2012-11-08 05:52:00